This is the latest recevied weather packets stored in our database for station/object WI0K. If no packets are shown the sender has not sent any weather packets the latest 10 day(s).
| Time | Temp. | Humidity | Pressure | Rain* | Wind** | Luminosity | Snow |
|---|---|---|---|---|---|---|---|
| 1778100130 | 3.33° C | 70% | 1020.1 hPa | 0 mm | - | 427 W/m² | - |
| 1778099829 | 3.33° C | 76% | 1020.1 hPa | 0 mm | - | 471 W/m² | - |
| 1778099529 | 3.33° C | 75% | 1020.1 hPa | 0 mm | - | 563 W/m² | - |
| 1778099479 | 3.33° C | 73% | 1020.2 hPa | 0 mm | - | 724 W/m² | - |
| 1778099228 | 3.33° C | 73% | 1020.2 hPa | 0 mm | - | 724 W/m² | - |
| 1778099168 | 3.33° C | 72% | 1020.1 hPa | 0 mm | - | 710 W/m² | - |
| 1778098927 | 3.33° C | 72% | 1020.1 hPa | 0 mm | - | 710 W/m² | - |
| 1778098867 | 3.89° C | 73% | 1020.2 hPa | 0 mm | - | 588 W/m² | - |
| 1778098627 | 3.89° C | 73% | 1020.2 hPa | 0 mm | - | 588 W/m² | - |
| 1778098577 | 3.89° C | 75% | 1020.2 hPa | 0 mm | - | 541 W/m² | - |
| 1778098326 | 3.89° C | 75% | 1020.2 hPa | 0 mm | - | 541 W/m² | - |
| 1778098276 | 3.89° C | 74% | 1020.2 hPa | 0 mm | - | 539 W/m² | - |
| 1778098025 | 3.89° C | 74% | 1020.2 hPa | 0 mm | - | 539 W/m² | - |
| 1778097976 | 3.33° C | 76% | 1020.2 hPa | 0 mm | - | 910 W/m² | - |
| 1778097725 | 3.33° C | 76% | 1020.2 hPa | 0 mm | - | 910 W/m² | - |
| 1778097424 | 2.78° C | 80% | 1020.3 hPa | 0 mm | - | 796 W/m² | - |
| 1778097360 | 2.78° C | 79% | 1020.3 hPa | 0 mm | - | 684 W/m² | - |
| 1778097123 | 2.78° C | 79% | 1020.3 hPa | 0 mm | - | 684 W/m² | - |
| 1778096823 | 2.22° C | 84% | 1020.3 hPa | 0 mm | - | 601 W/m² | - |
| 1778096749 | 2.22° C | 82% | 1020.3 hPa | 0 mm | - | 580 W/m² | - |
| 1778096522 | 2.22° C | 82% | 1020.3 hPa | 0 mm | - | 580 W/m² | - |
| 1778096221 | 2.22° C | 86% | 1020.4 hPa | 0 mm | - | 972 W/m² | - |
| 1778095921 | 2.22° C | 81% | 1020.4 hPa | 0 mm | - | 699 W/m² | - |
| 1778095620 | 1.67° C | 81% | 1020.4 hPa | 0 mm | - | 669 W/m² | - |
| 1778095319 | 1.67° C | 80% | 1020.4 hPa | 0 mm | - | 724 W/m² | - |
* Rain latest hour (hover to see other rain measurements)
** Current wind speed in m/s (hover to see current wind gust speed)